This is the latest recevied weather packets stored in our database for station/object KC2TER. If no packets are shown the sender has not sent any weather packets the latest 10 day(s).
| Time | Temp. | Humidity | Pressure | Rain* | Wind** | Luminosity | Snow |
|---|---|---|---|---|---|---|---|
| 1778203049 | 11.67° C | 74% | 1009.4 hPa | 0 mm | - | 0 W/m² | - |
| 1778202746 | 11.67° C | 73% | 1009.3 hPa | 0 mm | - | 0 W/m² | - |
| 1778202443 | 11.67° C | 73% | 1008.9 hPa | 0 mm | - | 0 W/m² | - |
| 1778202141 | 11.67° C | 72% | 1009.1 hPa | 0 mm | - | 0 W/m² | - |
| 1778201838 | 12.22° C | 72% | 1009.1 hPa | 0 mm | - | 0 W/m² | - |
| 1778201534 | 12.22° C | 72% | 1009.2 hPa | 0 mm | - | 0 W/m² | - |
| 1778201230 | 12.22° C | 71% | 1009 hPa | 0 mm | - | 0 W/m² | - |
| 1778200926 | 12.22° C | 71% | 1008.9 hPa | 0 mm | - | 0 W/m² | - |
| 1778200623 | 12.22° C | 71% | 1008.6 hPa | 0 mm | - | 0 W/m² | - |
| 1778200321 | 12.22° C | 70% | 1009 hPa | 0 mm | - | 0 W/m² | - |
| 1778200017 | 12.22° C | 70% | 1008.6 hPa | 0 mm | - | 0 W/m² | - |
| 1778199715 | 12.22° C | 70% | 1008.9 hPa | 0 mm | - | 0 W/m² | - |
| 1778199410 | 12.22° C | 70% | 1008.6 hPa | 0 mm | - | 0 W/m² | - |
| 1778199106 | 12.78° C | 71% | 1008.8 hPa | 0 mm | - | 0 W/m² | - |
| 1778198802 | 12.78° C | 71% | 1008.8 hPa | 0 mm | - | 0 W/m² | - |
| 1778198500 | 12.78° C | 71% | 1008.7 hPa | 0 mm | - | 0 W/m² | - |
| 1778198196 | 12.78° C | 71% | 1008.7 hPa | 0 mm | - | 1 W/m² | - |
| 1778197894 | 13.33° C | 70% | 1008.6 hPa | 0 mm | - | 3 W/m² | - |
| 1778197590 | 13.33° C | 69% | 1008.5 hPa | 0 mm | - | 5 W/m² | - |
| 1778197287 | 13.33° C | 68% | 1008.4 hPa | 0 mm | - | 7 W/m² | - |
| 1778196983 | 13.89° C | 67% | 1008.1 hPa | 0 mm | - | 10 W/m² | - |
| 1778196682 | 13.89° C | 66% | 1008.2 hPa | 0 mm | - | 13 W/m² | - |
| 1778196378 | 13.89° C | 65% | 1008.2 hPa | 0 mm | - | 19 W/m² | - |
| 1778196076 | 13.89° C | 63% | 1008.3 hPa | 0 mm | - | 23 W/m² | - |
| 1778195772 | 13.89° C | 63% | 1007.8 hPa | 0 mm | - | 28 W/m² | - |
* Rain latest hour (hover to see other rain measurements)
** Current wind speed in m/s (hover to see current wind gust speed)